Regional Weather Roundup
Issued by NWS Green Bay, WI

Home | Current Version | Previous Version | Text Only | Print | Product List | Glossary On
Versions: 1 2 3 4 5 6 7 8 9 10 11 12 13 14 15 16 17 18 19 20 21 22 23 24 25 26 27 28 29 30 31 32 33 34 35 36 37 38 39 40 41 42 43 44 45 46 47 48 49 50
000
ASUS43 KGRB 050400
RWRGRB

NORTH-CENTRAL AND NORTHEAST WISCONSIN REGIONAL WEATHER ROUNDUP
NATIONAL WEATHER SERVICE GREEN BAY WI
1100 PM CDT SAT JUL 04 2015

WIZ005-009-010>012-018-019-050500-
NORTH CENTRAL WISCONSIN

CITY           SKY/WX    TMP DP  RH WIND       PRES   REMARKS
IRONWOOD       PTCLDY    63  61  94 CALM      29.93R
MANITOWISH WTR NOT AVBL
ARBOR VITAE    NOT AVBL
EAGLE RIVER    NOT AVBL
LAND O LAKES   NOT AVBL
RHINELANDER    CLEAR     66  61  84 CALM      29.99R
PHILLIPS       NOT AVBL
ANTIGO         NOT AVBL
TOMAHAWK       NOT AVBL
MERRILL        NOT AVBL
$$

WIZ013-073-050500-
NORTHEAST WISCONSIN

CITY           SKY/WX    TMP DP  RH WIND       PRES   REMARKS
IRON MOUNTAIN  PTCLDY    65  60  84 SE7       29.98S
MARINETTE      CLEAR     64  57  77 S7        29.98S
$$

WIZ017-030-035>037-045-050500-
CENTRAL WISCONSIN

CITY           SKY/WX    TMP DP  RH WIND       PRES   REMARKS
MEDFORD        NOT AVBL
WAUSAU         PTCLDY    72  65  78 S5        29.96R HAZE
MOSINEE        NOT AVBL
MARSHFIELD     MOCLDY    67  61  81 S5        29.98R HAZE
WISC RAPIDS    CLEAR     68  62  81 S3        29.99R
STEVENS POINT  NOT AVBL
WAUPACA        NOT AVBL
SHAWANO        NOT AVBL
CLINTONVILLE   MOCLDY    68  63  83 SE3       29.98S
$$

WIZ038-039-048-051-050500-
FOX VALLEY

CITY           SKY/WX    TMP DP  RH WIND       PRES   REMARKS
NWS GREEN BAY  CLEAR     66  61  84 S3        29.99S
APPLETON       MOCLDY    72  63  73 VRB6      29.99S
OSHKOSH        CLEAR     67  62  84 S5        29.99R
FOND DU LAC    CLEAR     67  63  87 S5        30.00R
$$

WIZ022-050-052-050500-
EAST CENTRAL WISCONSIN

CITY           SKY/WX    TMP DP  RH WIND       PRES   REMARKS
STURGEON BAY   CLEAR     61  55  82 SE6       30.02F
MANITOWOC      NOT AVBL
SHEBOYGAN      CLEAR     62  57  83 CALM      30.01R
$$

LMZ563-521-522-541>543-050500-
LAKESHORE

STATION/POSITION TIME  TEMP    WIND        PRES    VSBY  WAVE
                       AIR SEA DIR/SP/G                  HT/PER
                 (UTC) (F)     (DEG/KT/KT) (MB)    (MI)  (FT/S)
SHEBOYGAN LKSHOR 0300   62     150/  5/  6 1016.2R
KEWAUNEE LKSHORE 0300   62      90/  1/  3 1015.4R
ALGOMA MARINA    0311             CALM       N/A
TWO RIVERS CG    0320   63                 1015.8
NORTHPORT PIER   0300   62     180/  4/  7 1015.9R
N MID LAKE BUOY  0250   57 53  210/  6/  6 1016.4R         0
S GREEN BAY BUOY 0300   68 69  140/  8/ 10 1016.8R
SISTER BAY LKSHO 0314   62     150/  9/ 12   N/A
CHAMBERS ISLAND  0300   65     130/  3/  5 1015.9R
MENOMINEE LKSHOR 0300   67     140/ 10/ 11 1016.2R
$$



USA.gov is the U.S. government's official web portal to all federal, state and local government web resources and services.